Simultaneous Nadir Overpasses (SNOs) Predictions

Prediction of SNOs between NPP and TERRA Satellite Orbit:

Table of predicted SNOs for the next 14.0 days since TLE Epoch: 6/30/2012
Index Date (NPP) Time (NPP) Lat,Lon (NPP) SZA (NPP ) Date (TERRA) Time (TERRA) Lat,Lon (TERRA) SZA (TERRA ) Distance(km) Time Diff (sec)
1 07/02/2012 11:28:20 68.97, 5.39 45.93 07/02/2012 11:29:29 68.82, 6.80 45.73 58.67 69
2 07/02/2012 12:18:50 -68.23, 173.69 134.84 07/02/2012 12:19:08 -68.21, 173.68 134.87 2.21 18
3 07/02/2012 13:09:34 68.11, -18.85 45.04 07/02/2012 13:08:35 68.10, -18.80 45.03 2.15 59
4 07/05/2012 03:45:11 68.31, 122.00 45.48 07/05/2012 03:46:08 68.31, 122.05 45.47 1.88 57
5 07/05/2012 04:35:52 -68.15, -70.48 134.68 07/05/2012 04:35:39 -68.15, -70.51 134.69 1.50 13
6 07/05/2012 05:26:25 67.44, 97.71 44.59 07/05/2012 05:25:15 67.53, 96.42 44.72 55.68 70
7 07/07/2012 19:11:49 -69.29, 69.10 133.23 07/07/2012 19:12:56 -69.18, 71.36 133.40 90.27 67
8 07/07/2012 20:02:15 68.21,-122.15 45.66 07/07/2012 20:02:38 68.23,-122.17 45.68 3.32 23
9 07/07/2012 20:52:57 -68.10, 45.31 134.45 07/07/2012 20:52:09 -68.07, 45.28 134.48 2.88 48
10 07/10/2012 11:28:41 -68.30,-173.87 133.93 07/10/2012 11:29:41 -68.32,-173.83 133.92 2.77 60
11 07/10/2012 12:19:25 68.18, -6.41 45.95 07/10/2012 12:19:09 68.15, -6.39 45.93 3.23 16
12 07/10/2012 13:09:58 -67.58, 161.65 134.66 07/10/2012 13:08:47 -67.60, 160.61 134.61 44.18 71
13 07/13/2012 02:55:23 68.94, 133.65
